Location: Ward Pound Ridge Reservation
(41.2500°N, 73.6000°W)
Time: 17:30:16
(UTC-04:00)

Tiangong 1 - Pass Details

Date: 14 October 2017
Orbit: 292 x 320 km, 42.8° (Epoch: 21 October)

Event Time Altitude Azimuth Distance (km) Brightness Sun altitude
Rises 20:04:55 0° 280° (W) 2,038 6.3 -21.5°
Reaches altitude 10° 20:07:05 10° 266° (W) 1,201 4.7 -21.9°
Enters shadow 20:08:32 21° 239° (WSW) 766 3.1 -22.1°
